Wind_Speed
20 19 18 16 13 11 10 7 6 4 4 4 4 4 3 2 2 3 5 7 8 8 9 10 12 13 15 16 17 17 18 19 19 19 20 20 20 21 21 22 22 23
20 19 18 15 13 12 10 8 6 5 4 5 6 4 3 2 3 4 6 7 7 8 9 11 12 14 16 17 18 18 19 20 20 20 20 20 20 21 21 22 22 22
21 20 18 15 13 12 10 8 6 5 5 7 6 3 2 3 3 5 6 7 8 8 9 11 13 15 17 18 19 19 20 20 20 20 20 20 20 20 21 21 21 21
22 21 19 16 14 13 10 8 7 7 7 7 5 3 3 3 4 5 6 7 9 9 10 11 14 15 17 18 19 20 20 20 19 19 19 19 20 20 20 20 19 19
22 21 19 16 15 13 10 8 8 8 7 7 5 4 4 4 4 5 6 8 9 9 10 12 14 16 18 18 19 19 19 19 18 19 19 19 19 19 19 17 17 17
22 21 19 17 16 13 10 10 10 8 7 7 6 5 5 5 5 5 6 7 8 9 11 12 14 16 17 18 17 18 18 19 18 18 19 18 18 17 16 15 15 16
21 20 18 17 16 13 11 11 11 8 7 7 7 6 6 5 5 6 7 7 8 9 11 12 15 16 17 16 16 17 18 18 18 17 17 15 14 14 14 14 15 15
19 18 18 18 16 13 12 13 11 8 8 8 7 7 7 6 5 6 7 7 8 9 11 13 14 15 16 15 15 16 16 17 16 14 13 13 13 13 14 14 15 16
18 17 17 17 15 13 14 14 11 9 9 8 7 8 7 7 7 6 6 7 8 9 11 13 14 14 14 14 14 15 14 14 13 11 11 12 13 13 14 15 16 16
18 18 17 16 13 14 15 14 12 11 9 8 8 9 9 8 7 6 5 6 7 9 11 13 13 14 13 13 13 12 11 11 11 10 11 12 13 14 14 15 16 16
18 18 17 14 14 15 16 15 13 12 10 10 10 11 10 9 8 6 6 6 7 8 10 12 13 13 13 13 12 10 8 8 9 9 10 11 12 13 14 15 15 15
18 17 16 15 16 17 17 16 14 13 12 11 12 12 11 9 8 6 6 6 7 8 9 11 12 12 12 11 10 8 7 7 7 8 9 10 12 13 14 14 14 14
19 17 16 16 17 18 18 17 16 14 13 12 12 12 10 9 8 7 7 7 7 7 8 10 11 11 11 9 8 7 7 7 7 8 9 10 11 12 13 13 13 13
19 18 17 18 19 20 20 18 17 15 13 12 12 12 10 9 9 8 8 8 7 7 8 9 10 11 9 7 6 6 6 6 7 8 9 10 11 11 11 11 11 12
19 18 19 20 20 21 20 18 16 14 13 12 12 12 11 11 10 9 9 8 7 6 7 8 10 9 8 6 6 5 6 6 7 7 9 10 10 10 10 9 9 10
18 18 19 20 20 20 19 17 15 13 12 12 13 12 12 11 11 10 10 9 7 6 7 8 8 7 6 6 5 5 6 6 6 7 8 9 9 9 9 8 8 9
18 19 20 20 19 18 17 15 14 13 13 13 13 13 12 12 11 11 10 9 7 6 6 7 6 5 5 5 5 5 6 6 6 7 8 8 8 8 8 8 8 10
18 19 20 19 18 16 14 13 12 13 14 14 14 13 13 12 12 11 10 9 7 6 6 5 5 5 5 5 5 5 5 5 6 6 7 8 8 8 8 8 9 10
19 20 20 19 17 14 11 11 12 13 14 14 13 13 13 13 12 11 10 8 7 6 5 5 5 5 5 5 5 5 5 5 5 6 7 8 8 8 8 9 9 10
20 21 20 19 17 13 11 11 12 13 14 14 13 13 13 12 12 11 10 9 8 7 6 6 6 5 5 5 6 5 4 5 5 6 7 8 8 9 9 9 10 11
23 23 22 19 16 13 11 11 12 13 13 13 14 13 13 12 12 11 11 9 8 7 7 6 6 6 6 6 5 4 4 5 5 6 7 8 8 9 9 10 10 11
25 25 22 18 14 13 11 11 12 12 13 13 13 13 13 12 12 12 11 10 9 8 8 7 7 6 6 6 5 4 4 5 5 6 7 8 8 9 9 10 10 11
26 24 21 17 14 14 13 12 13 13 12 13 13 13 12 12 13 13 12 11 10 10 9 9 8 7 7 6 5 5 4 5 6 6 7 8 8 9 9 9 10 11
25 23 19 17 15 15 13 13 13 13 12 13 13 13 13 13 14 14 13 12 11 11 10 9 9 8 7 7 6 5 5 5 6 6 7 8 8 9 9 9 10 10
24 21 18 16 15 13 12 13 13 13 13 14 14 14 14 14 15 14 13 13 13 12 11 10 10 9 8 7 6 5 5 6 6 7 7 8 8 9 9 9 10 11
23 20 17 15 14 13 12 13 13 14 14 15 15 14 14 15 16 15 14 14 14 13 12 11 11 10 8 7 6 6 5 6 7 7 8 8 9 9 9 9 10 11
Wind_Direction
195 195 193 191 192 195 199 201 210 246 277 263 254 264 271 298 340 0 4 4 8 6 355 350 348 346 344 343 341 337 331 326 324 323 322 321 322 323 324 324 324 324
194 197 197 196 199 205 208 208 218 250 264 244 249 268 291 323 348 2 5 4 5 0 352 350 351 349 346 343 339 332 327 325 324 324 323 323 324 325 326 325 325 325
198 201 201 203 208 213 214 216 229 244 247 248 259 284 311 325 346 0 1 359 360 358 352 351 353 350 345 341 335 329 326 325 326 325 323 324 326 327 328 327 327 328
202 203 204 209 214 217 220 226 235 241 255 267 275 292 311 326 346 354 351 353 359 358 352 353 353 348 344 339 333 329 327 326 327 326 324 327 330 330 331 331 331 334
204 206 210 215 219 221 226 231 237 249 272 282 278 288 309 322 336 343 345 352 357 353 351 353 351 346 342 337 332 329 326 326 328 328 328 331 334 335 335 337 339 342
205 210 214 219 222 225 229 235 241 258 280 283 277 288 303 313 328 339 346 350 349 346 349 350 348 345 340 335 333 330 326 326 328 330 332 335 337 339 341 344 346 346
207 211 215 220 224 226 230 237 246 260 275 282 284 288 296 307 321 332 341 343 340 341 346 346 346 343 338 335 333 329 325 325 329 333 336 338 341 344 346 346 345 343
210 212 216 221 223 225 231 240 249 258 272 287 290 287 290 296 303 319 333 336 333 337 341 342 343 341 338 336 331 327 326 326 331 337 339 342 346 346 346 345 342 340
214 215 218 222 223 226 234 242 249 257 275 290 288 281 281 281 289 310 327 327 327 332 335 338 340 339 339 335 329 330 330 330 335 341 341 345 348 346 345 342 339 339
216 218 221 222 224 230 238 244 250 261 277 286 280 276 275 276 285 303 315 316 321 328 332 335 337 339 340 335 333 337 338 335 337 342 344 345 345 343 341 338 337 339
217 220 223 223 227 235 241 247 254 264 276 280 276 274 271 272 280 294 302 305 314 324 329 332 336 340 340 337 338 344 345 338 336 341 344 343 341 339 336 335 337 340
220 223 224 226 232 240 245 251 258 266 273 275 272 269 267 268 275 286 294 297 306 319 326 331 337 341 342 340 342 344 343 340 337 339 340 339 338 337 335 336 339 343
224 227 227 229 235 243 248 253 260 266 270 268 265 264 264 265 271 279 285 287 296 313 325 334 340 344 345 342 340 338 337 340 339 337 338 339 338 338 338 340 343 349
226 227 228 231 237 244 249 255 262 265 264 260 261 264 263 263 266 271 275 277 288 310 327 337 342 345 345 339 332 332 334 336 337 337 337 338 339 340 341 342 348 357
223 224 227 232 238 244 251 258 262 261 257 256 259 261 260 259 262 264 267 271 283 308 327 336 341 343 339 328 322 327 331 330 333 336 338 339 340 342 342 344 353 3
219 222 228 234 239 246 253 258 258 255 254 255 256 256 257 257 258 259 261 267 280 304 322 331 337 335 321 315 317 321 322 323 331 338 339 340 341 340 339 343 354 4
217 222 228 234 239 245 250 253 253 252 252 253 253 254 254 252 253 255 256 262 274 296 314 324 326 316 303 305 308 308 312 320 332 339 338 338 339 336 336 342 354 3
218 223 228 230 233 239 244 245 246 246 248 252 253 252 250 248 250 250 251 256 268 285 303 310 304 293 290 295 294 294 306 321 332 337 336 336 335 333 335 344 354 1
218 223 227 229 232 234 234 232 235 239 245 251 252 250 249 247 248 247 246 252 262 274 286 286 278 277 279 278 276 284 304 320 328 332 331 332 332 332 337 345 352 357
220 226 232 239 241 236 226 224 231 238 245 250 249 247 246 245 245 242 242 248 256 262 268 266 263 264 263 262 267 280 303 315 322 326 327 328 330 332 338 345 350 353
224 233 242 250 246 235 231 233 236 241 245 245 244 244 244 242 240 238 239 245 250 251 253 254 252 250 248 253 262 276 296 307 314 320 322 325 329 334 340 345 349 351
230 240 249 254 248 242 247 248 245 246 244 242 241 241 240 239 236 235 238 244 246 244 244 245 243 240 241 249 260 270 285 299 307 315 320 323 330 336 340 344 348 350
236 244 250 256 257 260 263 257 252 249 241 236 236 236 236 235 232 233 237 241 241 239 238 239 238 236 237 245 254 263 278 294 303 312 318 322 329 335 338 343 348 350
239 244 249 257 262 264 261 253 248 243 233 229 230 230 232 232 229 232 238 240 239 237 234 235 236 235 235 243 251 259 275 291 302 310 316 322 328 333 337 343 348 351
239 243 250 259 263 259 250 240 236 231 224 223 225 227 230 229 228 232 236 237 236 235 232 232 233 231 231 237 247 259 275 291 303 311 317 323 327 332 337 343 349 354
236 242 251 261 261 251 238 230 225 220 217 219 223 227 230 228 228 231 234 235 235 234 231 230 230 229 228 233 244 260 278 295 307 314 319 322 326 331 337 345 352 357
Height
3157 3158 3160 3161 3162 3162 3163 3163 3164 3164 3164 3164 3164 3163 3162 3161 3160 3159 3158 3157 3157 3156 3156 3155 3154 3153 3151 3149 3148 3147 3146 3144 3143 3141 3140 3138 3136 3134 3132 3130 3128 3126
3156 3158 3159 3160 3161 3161 3162 3162 3163 3163 3163 3163 3163 3162 3161 3160 3159 3158 3157 3156 3156 3156 3155 3154 3153 3152 3150 3149 3148 3146 3145 3143 3142 3140 3138 3137 3135 3133 3131 3129 3127 3126
3155 3157 3158 3159 3160 3160 3161 3161 3162 3162 3162 3162 3162 3161 3160 3159 3158 3157 3157 3156 3156 3155 3154 3153 3152 3151 3149 3148 3147 3145 3144 3142 3141 3139 3137 3135 3133 3131 3130 3128 3127 3125
3154 3155 3157 3158 3159 3159 3160 3160 3161 3161 3161 3161 3160 3160 3159 3158 3158 3157 3156 3155 3155 3154 3154 3152 3151 3150 3149 3148 3146 3144 3143 3141 3140 3138 3136 3134 3132 3130 3129 3127 3126 3125
3153 3154 3155 3156 3157 3158 3159 3159 3160 3159 3159 3159 3159 3159 3158 3158 3157 3156 3155 3155 3154 3154 3153 3152 3151 3150 3149 3148 3146 3144 3142 3140 3139 3137 3134 3133 3131 3130 3128 3127 3126 3124
3152 3153 3154 3155 3156 3157 3157 3158 3158 3158 3158 3158 3158 3157 3157 3157 3157 3156 3155 3154 3153 3153 3152 3151 3150 3149 3148 3147 3145 3143 3141 3139 3137 3135 3133 3132 3130 3129 3128 3127 3125 3124
3150 3152 3153 3154 3155 3156 3156 3156 3156 3157 3157 3157 3156 3156 3156 3156 3156 3155 3154 3153 3152 3152 3151 3150 3150 3149 3148 3146 3144 3142 3140 3137 3136 3134 3133 3131 3130 3129 3128 3127 3126 3124
3149 3150 3152 3153 3154 3154 3154 3154 3155 3155 3155 3155 3155 3155 3155 3155 3155 3154 3153 3152 3151 3151 3150 3150 3149 3148 3147 3145 3143 3141 3139 3136 3135 3134 3132 3131 3130 3129 3128 3127 3125 3124
3148 3149 3150 3151 3152 3153 3153 3153 3154 3154 3154 3154 3154 3154 3154 3154 3153 3153 3152 3152 3151 3150 3149 3149 3148 3147 3146 3144 3142 3140 3138 3135 3134 3134 3132 3131 3130 3129 3128 3126 3125 3124
3146 3148 3149 3150 3151 3151 3151 3152 3152 3153 3153 3153 3153 3153 3153 3152 3152 3151 3151 3151 3150 3150 3148 3147 3147 3146 3144 3143 3141 3139 3137 3135 3134 3134 3132 3131 3130 3128 3127 3126 3125 3124
3145 3147 3148 3149 3149 3149 3150 3151 3151 3152 3152 3152 3151 3151 3151 3150 3150 3150 3150 3150 3150 3149 3148 3147 3145 3144 3142 3141 3139 3138 3137 3136 3135 3134 3132 3131 3130 3128 3127 3126 3125 3123
3144 3145 3147 3148 3148 3148 3149 3149 3150 3150 3150 3150 3150 3149 3149 3149 3149 3149 3149 3149 3149 3148 3147 3146 3144 3143 3141 3139 3138 3137 3136 3136 3135 3134 3132 3131 3130 3129 3127 3126 3125 3123
3143 3144 3145 3146 3146 3146 3147 3148 3148 3149 3149 3148 3148 3148 3148 3148 3147 3148 3148 3148 3148 3147 3146 3144 3143 3141 3140 3138 3137 3137 3136 3136 3135 3134 3132 3131 3130 3129 3127 3126 3125 3123
3141 3142 3143 3144 3144 3144 3145 3146 3147 3147 3147 3147 3146 3146 3146 3146 3146 3146 3147 3147 3147 3146 3144 3143 3141 3140 3138 3138 3137 3136 3136 3135 3134 3133 3132 3131 3130 3129 3128 3126 3125 3123
3138 3140 3141 3141 3142 3143 3143 3145 3145 3145 3145 3145 3145 3144 3144 3145 3145 3145 3145 3145 3145 3144 3143 3141 3140 3138 3137 3137 3136 3136 3136 3135 3134 3133 3132 3130 3130 3129 3128 3127 3125 3123
3136 3137 3138 3139 3140 3141 3142 3143 3143 3143 3143 3143 3143 3143 3143 3143 3143 3144 3144 3144 3143 3142 3141 3140 3138 3137 3137 3136 3136 3135 3135 3134 3133 3132 3131 3130 3130 3129 3128 3127 3125 3123
3134 3135 3136 3137 3138 3139 3140 3141 3141 3142 3142 3142 3142 3142 3142 3142 3142 3142 3142 3142 3142 3141 3139 3138 3137 3136 3136 3135 3135 3135 3134 3134 3133 3132 3131 3130 3130 3129 3128 3126 3124 3123
3132 3132 3133 3134 3135 3137 3138 3139 3140 3140 3140 3140 3140 3140 3140 3140 3140 3141 3141 3140 3140 3139 3138 3137 3136 3136 3135 3135 3135 3134 3134 3133 3132 3132 3131 3130 3130 3129 3127 3126 3124 3122
3130 3130 3131 3132 3133 3135 3136 3137 3138 3138 3138 3138 3138 3138 3138 3138 3139 3139 3139 3139 3138 3137 3137 3136 3135 3135 3134 3134 3134 3134 3133 3132 3132 3131 3131 3130 3129 3128 3127 3125 3124 3122
3128 3128 3129 3130 3132 3133 3134 3135 3136 3136 3136 3136 3136 3136 3136 3136 3137 3137 3137 3137 3137 3136 3135 3135 3134 3134 3134 3134 3133 3133 3132 3132 3131 3131 3130 3130 3129 3128 3126 3125 3123 3122
3126 3126 3127 3129 3130 3131 3132 3133 3134 3134 3134 3134 3134 3134 3134 3134 3135 3135 3135 3135 3135 3135 3134 3134 3133 3133 3133 3133 3133 3132 3132 3131 3131 3130 3130 3129 3128 3127 3126 3124 3123 3121
3124 3125 3126 3127 3128 3129 3129 3130 3131 3131 3131 3132 3132 3132 3132 3133 3133 3133 3134 3134 3134 3133 3133 3133 3132 3132 3132 3132 3132 3131 3131 3131 3130 3130 3129 3129 3128 3127 3125 3124 3123 3121
3122 3123 3124 3125 3125 3126 3126 3127 3128 3128 3129 3129 3130 3130 3131 3131 3131 3132 3132 3132 3132 3132 3132 3131 3131 3131 3131 3131 3131 3131 3130 3130 3130 3129 3129 3128 3127 3126 3125 3124 3123 3122
3120 3121 3122 3122 3123 3124 3124 3124 3125 3126 3127 3127 3128 3128 3129 3129 3130 3130 3131 3131 3131 3131 3130 3130 3130 3130 3130 3130 3130 3130 3130 3129 3129 3129 3128 3127 3127 3126 3125 3123 3122 3121
3118 3119 3120 3120 3121 3121 3121 3122 3123 3124 3125 3126 3126 3127 3127 3128 3128 3129 3129 3129 3129 3129 3129 3129 3129 3129 3129 3129 3129 3129 3128 3128 3128 3128 3127 3127 3126 3125 3124 3123 3122 3121
3116 3117 3117 3118 3118 3118 3119 3120 3121 3122 3123 3124 3124 3125 3125 3126 3127 3127 3127 3128 3128 3128 3128 3128 3128 3128 3128 3128 3128 3127 3127 3127 3127 3127 3126 3126 3125 3124 3123 3122 3121 3120